Location: Argonnex
(45.9500°N, 6.1333°E)
Time: 09:07:10
(UTC+00:00)

Cosmos 2266 Rocket - Pass Details

Date: 03 October 2023
Orbit: 933 x 1008 km, 82.9° (Epoch: 10 December)

Event Time Altitude Azimuth Distance (km) Brightness Sun altitude
Exits shadow 03:29:51 33° 293° (WNW) 1,618 4.8 -22.4°
Drops below altitude 10° 03:35:22 10° 352° (N) 2,794 6.5 -21.5°
Sets 03:38:13 0° 2° (N) 3,751 7.3 -21.0°
